www.pogodaiklimat.ru

Погода и климат >> Архив погоды >> Индия >> Пенджаб >> Амритсар


ПОГОДА в Амритсаре

  • Прогноз погоды в Амритсаре
  • Монитор погоды в Амритсаре

АРХИВ ПОГОДЫ в Амритсаре

Время (UTC), дата Ветер
(напр.,м/с)
 
Видим.   Явления Облачность Т
(С)
Тd
(С)
f
(%)
Тe
(С)
Тes
(С)
Комфортность P
(гПа)
Po
(гПа)
Тmin
(С)
Tmax
(С)
R
(мм)
R24
(мм)
S
(см)
18 16.01 штиль 0 1000 м дымка 8/4 1050 м
[Sc diur, vesp Ac As]
+6.0 +6.0 100 +5 +5 1020.4 1020.0
21 16.01 штиль 0 <50 м туман ?/? +3.4 +3.4 100 +2 +2 1019.9 1020.0
00 17.01 штиль 0 <50 м туман ?/? +1.8 +1.8 100 0 0 1019.0 1019.0
03 17.01 штиль 0 <50 м туман ясно +1.8 +1.8 100 0 +2 1020.5 1021.0 +0.4 +17.2
06 17.01 З 3 1000 м дымка ясно +10.8 +6.6 75 +9 +15 1020.7 1021.0
09 17.01 СЗ 4 4000 м мгла ясно +18.6 +4.4 39 +19 +23 1016.9 1017.0
12 17.01 1 2000 м мгла ясно +17.6 +4.6 42 +19 +19 1016.0 1016.0 +19.8
15 17.01 штиль 0 2000 м дымка ясно +9.8 +6.4 79 +9 +9 1018.0 1018.0
18 17.01 штиль 0 2000 м дымка ясно +7.4 +7.4 100 +6 +6 1019.4 1019.0
21 17.01 штиль 0 1000 м дымка ясно +5.0 +5.0 100 +4 +4 1019.4 1019.0
00 18.01 штиль 0 200 м туман ясно +4.0 +4.0 100 +3 +3 1018.5 1019.0
03 18.01 штиль 0 500 м туман поземный 5/0
[Ac trans Ci fib]
+5.0 +4.5 97 +4 +5 1019.6 1020.0 +2.5 +19.8
06 18.01 штиль 0 1000 м мгла 5/3 1200 м
[Sc diur, vesp Ac trans]
+16.0 +6.2 52 +16 +22 1019.3 1019.0
09 18.01 СЗ 2 2000 м мгла 8/3 1200 м
[Sc diur, vesp Ac As]
+17.6 +8.3 54 +18 +20 1017.1 1017.0
12 18.01 штиль 0 2000 м мгла 8/3 1200 м
[Sc diur, vesp Ac As]
+15.8 +8.3 61 +16 +16 1016.5 1017.0 +18.3
15 18.01 штиль 0 2000 м дымка 8/3 1200 м
[Sc diur, vesp Ac As]
+11.2 +7.5 78 +11 +11 1017.8 1018.0
18 18.01 штиль 0 2000 м дымка 8/3 1200 м
[Sc diur, vesp Ac As]
+9.0 +7.3 89 +8 +8 1018.5 1019.0
21 18.01 штиль 0 2000 м дымка 8/3 1200 м
[Sc diur, vesp Ac As]
+8.2 +7.8 97 +7 +7 1018.2 1018.0
00 19.01 штиль 0 1000 м дымка 8/4 1200 м
[Sc diur, vesp Ac trans]
+8.6 +8.2 97 +8 +8 1017.1 1017.0
03 19.01 штиль 0 1000 м дымка 5/0
[Ac trans]
+7.2 +4.4 82 +6 +7 1018.3 1018.0 +5.8 +18.3
06 19.01 1 2000 м мгла 5/0
[Ac trans]
+16.8 +5.1 46 +18 +24 1019.1 1019.0
09 19.01 З 3 2000 м мгла 8/0
[Ac trans Ci fib]
+20.0 +8.6 48 +22 +25 комфорт 1016.6 1017.0
12 19.01 СЗ 3 2000 м мгла 8/5 1200 м
[Sc diur, vesp Ac trans]
+17.2 +7.3 52 +17 +17 1016.4 1016.0 +20.2
15 19.01 штиль 0 2000 м дымка 6/4 1200 м
[Sc diur, vesp Ac trans]
+12.6 +8.6 77 +12 +12 1017.5 1018.0
18 19.01 штиль 0 2000 м дымка 6/4 1200 м
[Sc diur, vesp Ac As]
+10.0 +7.9 87 +9 +9 1018.2 1018.0
21 19.01 штиль 0 2000 м дымка 6/4 1200 м
[Sc diur, vesp Ac As]
+10.2 +8.9 92 +9 +9 1017.3 1017.0
00 20.01 1 2000 м дымка 6/4 1200 м
[Sc diur, vesp Ac As]
+9.0 +8.6 97 +8 +8 1017.5 1018.0
03 20.01 штиль 0 1000 м дымка 9/4 1200 м
[Sc diur, vesp Ac As]
+9.2 +8.8 97 +8 +9 1018.5 1019.0 +7.6 +20.2
06 20.01 1 1000 м мгла 8/4 1200 м
[Sc diur, vesp Ac As]
+16.2 +11.4 73 +17 +20 1018.5 1019.0
09 20.01 В 2 2000 м мгла 10/5 1200 м
[Sc diur, vesp As op]
+19.0 +10.1 56 +21 +21 комфорт 1015.8 1016.0
12 20.01 СЗ 4 2000 м мгла 10/5 1200 м
[Sc diur, vesp As op]
+16.2 +11.4 73 +16 +16 1015.1 1015.0 +20.5
15 20.01 С 3 2000 м дымка 10/5 1050 м
[Sc diur, vesp As op]
+12.6 +8.6 77 +11 +11 1015.6 1016.0
18 20.01 З 3 2000 м дымка 9/4 1050 м
[Sc diur, vesp Ac trans]
+11.4 +9.0 85 +10 +10 1017.0 1017.0
21 20.01 СВ 4 2000 м гроза, ливневой дождь 10/5 900 м
[Cb cap As op]
+13.0 +12.3 96 +11 +11 1014.7 1015.0 0.7
00 21.01 С 3 2000 м дымка {гроза, дождь} 10/5 1050 м
[Sc diur, vesp As op]
+12.2 +11.8 97 +10 +10 1014.4 1014.0 1
03 21.01 СВ 3 2000 м гроза, ливневой дождь 10/5 900 м
[Cb cap As op]
+12.0 +10.5 91 +10 +10 1016.1 1016.0 +11.2 +20.5 5
06 21.01 ЮВ 3 2000 м дымка {гроза, дождь} 10/5 900 м
[Sc diur, vesp As op]
+14.0 +12.9 93 +13 +14 1015.8 1016.0 0.1
09 21.01 С 5 2000 м слаб. дождь {гроза} 10/5 900 м
[Cb cap As op]
+14.6 +14.6 100 +13 +13 1013.3 1013.0 3
12 21.01 штиль 0 1000 м гроза, ливневой дождь 10/5 900 м
[Cb cap As op]
+12.9 +12.9 100 +12 +12 1014.0 1014.0 +14.7 6
15 21.01 СВ 5 2000 м гроза, ливневой дождь 10/5 900 м
[Cb cap As op]
+12.2 +12.2 100 +10 +10 1011.7 1012.0 9
18 21.01 В 5 2000 м дымка {гроза, дождь} 10/5 900 м
[Cb cap As op]
+12.5 +12.5 100 +10 +10 1012.6 1013.0
21 21.01 1 2000 м дымка {гроза, дождь} 10/5 900 м
[Cb cap As op]
+11.8 +11.8 100 +11 +11 1013.2 1013.0 12
00 22.01 1 2000 м дымка {гроза, дождь} 10/5 900 м
[Cb cap As op]
+11.6 +11.6 100 +11 +11 1012.1 1012.0 12
03 22.01 В 4 2000 м гроза, ливневой дождь 10/5 900 м
[Cb cap As op]
+11.0 +11.0 100 +9 +9 1013.2 1013.0 +9.3 +14.7 13
06 22.01 В 3 2000 м дымка {гроза, дождь} 10/5 900 м
[Cb cap As op]
+11.6 +11.6 100 +10 +10 1015.0 1015.0 0.4
09 22.01 В 3 4000 м дымка 10/5 900 м
[Sc diur, vesp As op]
+12.8 +11.3 91 +11 +12 1014.2 1014.0 0.4
12 22.01 В 3 4000 м дымка 9/5 900 м
[Sc diur, vesp Ac As]
+13.0 +11.1 88 +12 +12 1014.9 1015.0 +13.3 0.4
15 22.01 штиль 0 2000 м дымка 10/5 900 м
[Sc diur, vesp As op]
+12.2 +12.2 100 +11 +11 1017.1 1017.0 0.4
18 22.01 1 2000 м гроза без осадков 10/5 900 м
[Cb cap As op]
+10.6 +10.6 100 +10 +10 1018.9 1019.0 0.4
21 22.01 штиль 0 2000 м дымка {гроза, дождь} 8/4 900 м
[Sc diur, vesp Ac As]
+9.0 +9.0 100 +8 +8 1018.2 1018.0 0.5
00 23.01 штиль 0 2000 м дымка {гроза, дождь} 8/4 900 м
[Sc diur, vesp Ac As]
+7.4 +7.4 100 +6 +6 1018.0 1018.0 0.5
03 23.01 штиль 0 4000 м дымка 1/0
[Ac trans]
+7.4 +6.5 94 +6 +8 1019.1 1019.0 +5.4 +14.7 0.5
06 23.01 штиль 0 4000 м мгла 1/0
[Ac trans]
+15.4 +6.9 57 +15 +26 опасность
простуды
1020.0 1020.0
09 23.01 З 3 4000 м ясно +17.2 +5.2 45 +17 +22 1018.5 1019.0
12 23.01 СЗ 3 4000 м мгла ясно +15.0 +9.2 68 +15 +15 1018.4 1018.0 +17.7

 

Местоположение метеостанции Амритсар (Пенджаб, Индия): широта 31.63 долгота 74.87 высота над уровнем моря 234 м.

В архиве по умолчанию представлена погода в Амритсаре за последнюю неделю. Архивные данные за месяц целиком и за предыдущие месяцы, начиная с января 2011 года, Вы можете получить, выбрав интересующий диапазон дат из раскрывающегося списка и нажав кнопку "Ввод!".


*Определитесь, кто Вы:
робот инопланетянин человек

Внимание! Время в таблицах - всемирное. Для получения местного времени необходимо прибавить поправку, которая равна 5.5 ч.

Смотрите также архив погоды в соседних городах и на ближайших метеорологических станциях:

Погода в Лахоре (Пакистан) (52 км)
Погода в Сиялкоте (Пакистан) (102 км)
Погода в Джамму (Джамму и Кашмир, Индия) (116 км)
Погода в Лудхиане (Пенджаб, Индия) (132 км)
Погода в Уне (Химачал-Прадеш, Индия) (134 км)
Погода в Кангре (Химачал-Прадеш, Индия) (142 км)
Погода в Катре (Джамму и Кашмир, Индия) (151 км)
Погода в Дармсале (Химачал-Прадеш, Индия) (159 км)
Погода в Батоте (Джамму и Кашмир, Индия) (169 км)
Погода в Фейсалабаде (Пакистан) (169 км)

Пояснения к столбцам:

Ветер - указаны скорость ветра в м/с - средняя за 10 мин, порывы в срок и между сроками (в фигурных скобках) и направление, откуда дует ветер: С - северный, СВ - северо-восточный, В - восточный, ЮВ - юго-восточный, Ю - южный, ЮЗ - юго-западный, З - западный, СЗ - северо-западный.
Видимость - горизонтальная дальность видимости в метрах или километрах. При видимости от 1 до 10 км при отсутствии осадков обычно наблюдается дымка, при ухудшении видимости до 1 км и менее - туман. В сухую погоду видимость может ухудшаться дымом, пылью или мглою.
Явления - указаны атмосферные явления, наблюдавшиеся в срок или в последний час перед сроком; фигурными скобками обозначены явления, наблюдавшиеся между сроками (за 1-3 часа до срока); квадратными скобками обозначены град или гололедные отложения с указанием их диаметра в мм.
Облачность - указаны через наклонную черту общая и нижняя облачность в баллах и высота нижней границы облаков в метрах; квадратными скобками обозначены формы облаков: Ci - перистые, Cs - перисто-слоистые, Cc - перисто-кучевые, Ac - высококучевые, As - высокослоистые, Sc - слоисто-кучевые, Ns - слоисто-дождевые, Cu - кучевые, Cb - кучево-дождевые. Подробнее классификацию облаков см. в Атласе облаков (PDF).
T - Температура воздуха - температура, измеренная на высоте 2 м над землей.
Td - Температура точки росы - температура, при понижении до которой содержащийся в воздухе водяной пар достигнет насыщения.
f - Относительная влажность воздуха - влажноcть воздуха, измеренная на высоте 2 м над землей.
Te - Эффективная температура - температура, которую ощущает одетый по сезону человек в тени. Характеристика душности погоды. При расчете учитывается влияние влажности воздуха и скорости ветра на теплоощущения человека.
Tes - Эффективная температура на солнце - температура, которую ощущает человек, с поправкой на солнечный нагрев. Характеристика знойности погоды. Зависит от высоты солнца над горизонтом, облачности и скорости ветра. Ночью, в пасмурную погоду, а также при ветре 12 м/с и более поправка равна нулю.
P - Атмосферное давление - приведенное к уровню моря атмосферное давление.
Po - Атмосферное давление - измеренное на уровне метеостанции атмосферное давление.
Tmin - Минимальная температура - минимум температуры воздуха на высоте 2 м над землей.
Tmax - Максимальная температура - максимум температуры воздуха на высоте 2 м над землей.
R - Количество осадков - Количество выпавших осадков за период времени, мм. При наведении курсора мыши на число - период времени, за который выпало указанное количество осадков.
R24 - Количество осадков - Количество выпавших осадков за 24 часа, мм.
S - Снежный покров - Высота снежного покрова, см. При наведении курсора мыши на число - состояние снежного покрова и степень покрытия местности в баллах.